GW1111 Weather Reports


time (UTC)temp
C
wind
direction
speed
KPH
gust
KPH
rain 1hr
cm
rain 24hr
cm
rain mn
cm
humidity
%
barometer
mb
20260510063942 12 148 0.0 0.0 0.00 0.00 0.00 73 1012.3
20260510062939 12 62 0.0 0.0 0.00 0.00 0.00 73 1012.3
20260510061941 12 106 0.0 0.0 0.00 0.00 0.00 73 1012.1
20260510061419 12 300 0.0 0.0 0.00 0.00 0.00 74 1012.0
20260510055938 12 337 0.0 0.0 0.00 0.00 0.00 74 1012.0
20260510054938 11 311 0.0 0.0 0.00 0.00 0.00 75 1012.1
20260510053939 11 336 0.0 0.0 0.00 0.00 0.00 76 1012.2
20260510052940 11 241 0.0 0.0 0.00 0.00 0.00 76 1012.2
20260510051939 11 92 0.0 0.0 0.00 0.00 0.00 76 1012.2
20260510050939 11 209 0.0 0.0 0.00 0.00 0.00 77 1012.3
20260510045939 11 271 0.0 0.0 0.00 0.00 0.00 77 1012.3
20260510044938 11 237 0.0 0.0 0.00 0.00 0.00 76 1012.5
20260510043939 11 237 0.0 0.0 0.00 0.00 0.00 76 1012.4
20260510042940 11 272 0.0 0.0 0.00 0.00 0.00 77 1012.5
20260510041936 11 265 0.0 0.0 0.00 0.00 0.00 76 1012.5
20260510040935 11 265 0.0 0.0 0.00 0.00 0.00 75 1012.6
20260510040415 11 260 0.0 0.0 0.00 0.00 0.00 75 1012.5
20260510034934 11 49 0.0 0.0 0.00 0.00 0.00 75 1012.5
20260510034414 11 312 0.0 0.0 0.00 0.00 0.00 75 1012.7
20260510032935 12 55 0.0 0.0 0.00 0.00 0.00 74 1012.8
20260510031934 12 69 0.0 0.0 0.00 0.00 0.00 74 1012.9
20260510030934 12 36 0.0 0.0 0.00 0.00 0.00 73 1013.0
20260510025936 12 104 0.0 0.0 0.00 0.00 0.00 72 1013.0
20260510024935 12 36 0.0 0.0 0.00 0.00 0.00 72 1013.1
20260510023930 12 309 0.0 0.0 0.00 0.00 0.00 73 1013.1
20260510022930 13 334 0.0 0.0 0.00 0.00 0.00 73 1013.2
20260510021929 13 138 0.0 0.0 0.00 0.00 0.00 73 1013.2
20260510020930 13 324 0.0 0.0 0.00 0.00 0.00 73 1013.2
20260510020406 13 294 0.0 0.0 0.00 0.00 0.00 73 1013.2
20260510014931 13 294 0.0 0.0 0.00 0.00 0.00 72 1013.4
20260510013933 13 294 0.0 0.0 0.00 0.00 0.00 73 1013.3
20260510013410 13 241 0.0 0.0 0.00 0.00 0.00 72 1013.2
20260510011929 13 248 0.0 0.0 0.00 0.00 0.00 73 1012.9
20260510010930 13 248 0.0 0.0 0.00 0.00 0.00 72 1013.0
20260510005929 13 248 0.0 0.0 0.00 0.00 0.00 72 1013.2
20260510004929 13 248 0.0 0.0 0.00 0.00 0.00 71 1012.9
20260510003929 13 248 0.0 0.0 0.00 0.00 0.00 71 1013.0
20260510002930 13 12 0.0 0.0 0.00 0.00 0.00 70 1013.2
20260510001932 14 22 0.0 0.0 0.00 0.00 0.00 70 1013.4
20260510000930 14 329 0.0 0.0 0.00 0.00 0.00 71 1013.5
20260509235932 14 304 0.0 0.0 0.00 0.00 0.00 71 1013.7
20260509234931 14 326 0.0 0.0 0.00 0.00 0.00 70 1013.8
20260509233929 14 313 0.0 0.0 0.00 0.00 0.00 71 1013.9
20260509233903 14 88 0.0 0.0 0.00 0.00 0.00 71 1014.0
20260509231929 14 340 0.0 0.0 0.00 0.00 0.00 71 1013.9
20260509230927 14 329 0.0 0.0 0.00 0.00 0.00 71 1013.8
20260509225924 14 284 0.0 0.0 0.00 0.00 0.00 71 1013.9
20260509224925 14 108 0.0 0.0 0.00 0.00 0.00 71 1013.8
20260509223926 14 5 0.0 0.0 0.00 0.00 0.00 72 1013.8
20260509222925 14 317 0.0 0.0 0.00 0.00 0.00 72 1013.8
20260509221923 14 108 0.0 0.0 0.00 0.00 0.00 72 1013.8
20260509221840 15 291 0.0 0.0 0.00 0.00 0.00 71 1013.9
20260509215924 15 242 0.0 0.0 0.00 0.00 0.00 71 1014.0
20260509214926 15 117 0.0 0.0 0.00 0.00 0.00 71 1014.0
20260509214414 15 227 0.0 0.0 0.00 0.00 0.00 72 1014.1
20260509212925 15 306 0.0 0.0 0.00 0.00 0.00 72 1013.9
20260509211924 15 282 0.0 0.0 0.00 0.00 0.00 71 1013.9
20260509210925 15 86 0.0 0.0 0.00 0.00 0.00 72 1014.0
20260509210402 15 148 0.0 0.0 0.00 0.00 0.00 73 1013.7
20260509204923 15 142 0.0 0.0 0.00 0.00 0.00 74 1013.7
20260509203924 15 5 0.0 0.0 0.00 0.00 0.00 75 1013.9
20260509202924 15 5 0.0 0.0 0.00 0.00 0.00 76 1013.8
20260509201921 15 5 0.0 0.0 0.00 0.00 0.00 76 1013.9
20260509200926 16 5 0.0 0.0 0.00 0.00 0.00 73 1013.8
20260509200839 16 5 0.0 0.0 0.00 0.00 0.00 72 1013.7
20260509194923 16 5 0.0 0.0 0.00 0.00 0.00 71 1013.6
20260509193924 16 5 0.0 0.0 0.00 0.00 0.00 70 1013.3
20260509193410 17 5 0.0 0.0 0.00 0.00 0.00 70 1013.4
20260509191922 17 5 0.0 0.0 0.00 0.00 0.00 70 1013.4
20260509190920 17 5 0.0 0.0 0.00 0.00 0.00 70 1013.3
20260509185921 17 5 0.0 0.0 0.00 0.00 0.00 70 1013.2
20260509184921 17 5 0.0 0.0 0.00 0.00 0.00 70 1013.2
20260509183922 17 5 0.0 0.0 0.00 0.00 0.00 70 1013.2
20260509182921 18 5 0.0 0.0 0.00 0.00 0.00 69 1013.0
20260509182424 18 5 0.0 0.0 0.00 0.00 0.00 66 1013.1
20260509180921 18 5 0.0 0.0 0.00 0.00 0.00 66 1013.0
20260509175921 18 5 0.0 0.0 0.00 0.00 0.00 66 1012.9
20260509174921 19 5 0.0 0.0 0.00 0.00 0.00 64 1012.9
20260509173922 19 30 0.0 0.0 0.00 0.00 0.00 64 1012.8
20260509173843 20 339 0.0 0.0 0.00 0.00 0.00 62 1012.6
20260509171922 20 182 0.0 0.0 0.00 0.00 0.00 61 1012.7
20260509170920 21 172 0.0 0.0 0.00 0.00 0.00 63 1012.8
20260509165921 21 295 0.0 0.0 0.00 0.00 0.00 60 1012.8
20260509164920 21 318 0.0 0.0 0.00 0.00 0.00 59 1012.9
20260509163922 21 307 0.0 0.0 0.00 0.00 0.00 59 1012.8
20260509162920 22 334 0.0 0.0 0.00 0.00 0.00 62 1012.9
20260509162412 21 291 0.0 0.0 0.00 0.00 0.00 60 1013.1
20260509160922 21 284 0.0 0.0 0.00 0.00 0.00 60 1013.1
20260509155921 21 277 0.0 0.0 0.00 0.00 0.00 64 1013.2
20260509154923 22 132 0.0 0.0 0.00 0.00 0.00 57 1013.1
20260509153920 22 329 0.0 0.0 0.00 0.00 0.00 59 1013.2
20260509152920 22 294 0.0 0.0 0.00 0.00 0.00 63 1013.2
20260509151922 21 240 0.0 0.0 0.00 0.00 0.00 62 1013.3
20260509150921 22 136 0.0 0.0 0.00 0.00 0.00 56 1013.3
20260509145919 21 199 0.0 0.0 0.00 0.00 0.00 59 1013.3
20260509144920 22 200 0.0 0.0 0.00 0.00 0.00 61 1013.4
20260509144408 22 78 0.0 0.0 0.00 0.00 0.00 58 1013.4
20260509142918 22 17 0.0 0.0 0.00 0.00 0.00 59 1013.5
20260509141918 22 192 0.0 0.0 0.00 0.00 0.00 55 1013.5
20260509140919 22 32 0.0 0.0 0.00 0.00 0.00 59 1013.4
20260509135918 21 321 0.0 0.0 0.00 0.00 0.00 59 1013.5
20260509134918 22 267 0.0 0.0 0.00 0.00 0.00 58 1013.4
20260509134406 22 194 0.0 0.0 0.00 0.00 0.00 58 1013.4
20260509132916 22 241 0.0 0.0 0.00 0.00 0.00 62 1013.5
20260509131917 20 267 0.0 0.0 0.00 0.00 0.00 63 1013.7
20260509130917 21 136 0.0 0.0 0.00 0.00 0.00 64 1013.7
20260509125919 20 332 0.0 0.0 0.00 0.00 0.00 61 1013.8
20260509124914 21 163 0.0 0.0 0.00 0.00 0.00 58 1013.8
20260509123913 22 273 0.0 0.0 0.00 0.00 0.00 62 1013.8
20260509122916 21 182 0.0 0.0 0.00 0.00 0.00 64 1014.1
20260509121914 21 189 0.0 0.0 0.00 0.00 0.00 60 1014.2
20260509120909 21 161 0.0 0.0 0.00 0.00 0.00 61 1014.2
20260509115912 21 0 0.0 0.0 0.00 0.00 0.00 62 1014.3
20260509115355 21 237 0.0 0.0 0.00 0.00 0.00 64 1014.3
20260509113908 21 203 0.0 0.0 0.00 0.00 0.00 64 1014.5
20260509112910 20 224 0.0 0.0 0.00 0.00 0.00 65 1014.5
20260509111908 20 338 0.0 0.0 0.00 0.00 0.00 62 1014.7
20260509111838 20 231 0.0 0.0 0.00 0.00 0.00 64 1014.8
20260509110348 20 242 0.0 0.0 0.00 0.00 0.00 65 1015.0
20260509104901 20 51 0.0 0.0 0.00 0.00 0.00 66 1015.2
20260509103902 19 297 0.0 0.0 0.00 0.00 0.00 63 1015.3
20260509102902 19 325 0.0 0.0 0.00 0.00 0.00 65 1015.4
20260509102822 19 134 0.0 0.0 0.00 0.00 0.00 68 1015.4
20260509100904 18 255 0.0 0.0 0.00 0.00 0.00 65 1015.5
20260509095902 18 284 0.0 0.0 0.00 0.00 0.00 65 1015.5
20260509094901 18 327 0.0 0.0 0.00 0.00 0.00 65 1015.5
20260509093900 17 232 0.0 0.0 0.00 0.00 0.00 68 1015.6
20260509092858 17 268 0.0 0.0 0.00 0.00 0.00 67 1015.5
20260509091855 17 342 0.0 0.0 0.00 0.00 0.00 68 1015.6
20260509090857 16 319 0.0 0.0 0.00 0.00 0.00 71 1015.7
20260509090336 16 206 0.0 0.0 0.00 0.00 0.00 73 1015.6
20260509084854 15 306 0.0 0.0 0.00 0.00 0.00 75 1015.6
20260509083857 15 126 0.0 0.0 0.00 0.00 0.00 73 1015.6
20260509082852 15 309 0.0 0.0 0.00 0.00 0.00 76 1015.6
20260509082334 13 319 0.0 0.0 0.00 0.00 0.00 80 1015.7
20260509080853 13 355 0.0 0.0 0.00 0.00 0.00 80 1015.8
20260509075852 13 351 0.0 0.0 0.00 0.00 0.00 84 1015.8
20260509074850 12 119 0.0 0.0 0.00 0.00 0.00 89 1015.8
20260509073850 12 83 0.0 0.0 0.00 0.00 0.00 92 1015.9
20260509072852 11 89 0.0 0.0 0.00 0.00 0.00 94 1016.0
20260509071847 10 101 0.0 0.0 0.00 0.00 0.00 94 1015.9
20260509070847 10 100 0.0 0.0 0.00 0.00 0.00 94 1016.1
20260509065846 9 101 0.0 0.0 0.00 0.00 0.00 94 1016.2
20260509065323 8 101 0.0 0.0 0.00 0.00 0.00 95 1016.0